Temperature
11 11 11 11 10 10 10 10 10 10 11 11 12 12 12 12 12 12 13 13 13 13 13 14 14 14 14 14 14 15 15 15 15 15 15 15 16 16
11 11 11 11 10 10 10 10 10 10 10 10 11 11 11 11 12 12 12 12 12 13 13 13 13 14 14 14 14 14 14 15 15 15 15 15 15 15
11 11 11 10 10 10 10 10 10 10 10 10 10 11 11 11 11 11 11 12 12 12 12 13 13 13 13 13 14 14 14 14 14 15 15 15 15 15
11 11 11 10 10 10 10 10 10 10 9 10 10 10 10 11 11 11 11 11 12 12 12 12 13 13 13 13 13 13 14 14 14 14 15 15 15 15
11 11 11 10 10 10 10 10 10 10 9 9 10 10 10 10 10 10 11 11 11 11 11 12 12 12 12 13 13 13 13 13 14 14 14 14 15 15
11 11 11 11 10 10 10 10 10 10 9 9 9 10 10 10 10 10 10 10 11 11 11 11 11 12 12 12 12 13 13 13 13 14 14 14 14 15
12 11 11 11 10 10 10 10 10 9 9 9 9 9 10 10 9 9 10 10 10 10 11 11 11 11 11 12 12 12 12 13 13 13 14 14 14 14
12 11 11 11 11 10 10 10 10 9 9 9 9 9 9 9 9 9 9 9 9 10 10 11 11 11 11 11 12 12 12 12 13 13 13 13 14 14
12 11 11 11 11 10 10 10 10 9 9 9 9 9 9 9 9 9 9 9 9 9 9 10 10 11 11 11 11 12 12 12 12 13 13 13 14 14
12 12 11 11 11 10 10 10 10 10 9 9 9 9 9 9 9 8 8 8 9 9 9 9 10 10 11 11 11 12 12 12 12 13 13 13 13 13
12 12 11 11 11 10 10 10 10 10 10 9 9 9 9 9 8 8 8 8 8 9 9 8 9 10 10 11 11 11 12 12 12 12 13 13 13 13
13 12 12 11 11 11 10 10 10 10 10 9 9 9 9 9 8 8 8 8 8 8 9 8 9 9 9 10 10 11 11 11 12 12 12 13 13 12
12 12 12 12 11 11 10 10 10 10 9 9 9 9 9 9 9 8 8 8 8 8 8 8 8 8 8 8 9 10 10 11 11 11 12 12 12 12
12 12 12 12 11 11 10 10 10 9 9 9 9 9 9 9 9 8 8 8 8 8 8 8 8 8 8 8 8 10 10 10 10 11 11 11 11 12
12 12 12 12 11 11 11 10 10 9 9 9 9 9 9 9 8 8 8 8 8 8 8 8 8 8 8 8 8 9 9 10 10 10 11 11 11 11
12 12 12 11 11 11 11 10 10 10 9 9 9 9 9 8 8 8 8 8 8 8 8 8 8 8 8 8 8 8 9 9 10 10 10 10 11 11
11 11 11 11 11 11 11 10 10 10 9 9 9 8 8 8 8 8 8 8 8 8 8 8 8 8 8 8 8 8 9 9 9 10 10 10 11 11
11 11 11 11 11 11 11 10 10 10 9 9 9 8 8 8 8 8 8 8 8 8 8 8 8 8 8 8 8 8 9 9 9 9 9 10 10 11
10 11 11 11 11 11 10 10 10 10 9 9 9 8 8 8 8 8 8 8 7 8 8 8 8 7 7 7 8 9 9 9 9 9 9 10 10 11
10 10 10 10 10 10 10 10 9 9 9 9 8 8 8 8 8 8 8 7 7 7 7 8 8 8 7 7 7 8 8 8 8 9 9 9 10 10
9 9 10 10 10 9 9 9 9 9 9 8 8 8 8 8 8 8 7 7 7 7 7 8 8 8 7 7 7 8 8 8 8 8 9 9 9 10
8 9 9 9 9 9 9 9 9 9 8 8 8 8 8 7 7 7 7 7 7 7 7 7 8 7 7 7 7 8 8 8 8 8 8 9 9 9
7 8 8 8 8 8 8 8 8 8 8 8 8 8 7 7 7 7 7 7 7 7 7 7 7 7 7 7 7 8 8 8 8 8 8 8 8 9
Wind_Speed
3 3 3 2 3 3 3 3 2 2 3 3 2 2 6 7 8 7 6 7 8 7 6 7 7 8 9 10 11 13 15 17 21 26 29 30 31 32
3 4 4 3 3 3 4 4 4 4 4 3 3 4 5 7 8 7 7 8 8 8 8 8 9 10 10 10 11 13 14 16 17 21 26 29 30 31
4 4 6 4 4 3 3 4 5 5 6 5 3 3 4 5 6 7 7 7 7 9 10 10 11 12 12 13 13 14 15 16 17 19 21 25 28 30
6 5 6 4 5 4 4 5 5 6 6 7 4 3 4 5 5 5 6 6 7 9 11 11 12 12 13 14 15 16 16 17 18 19 21 23 26 28
7 7 7 5 6 5 5 6 5 5 6 6 5 3 4 4 4 4 5 5 6 8 9 9 9 10 11 13 15 16 17 18 18 19 21 22 24 26
7 7 7 7 8 8 6 7 6 6 5 6 6 5 5 4 4 4 5 3 4 6 7 8 8 9 10 11 13 15 17 18 19 20 20 21 23 25
8 8 8 10 11 9 7 7 6 6 5 6 6 5 5 4 5 3 5 5 5 4 4 4 5 6 8 10 12 14 16 17 19 20 20 21 23 24
9 9 8 10 11 12 13 12 10 9 8 7 7 7 9 7 5 5 4 4 5 3 3 5 4 7 8 10 13 15 16 17 18 19 20 21 22 24
10 9 8 8 9 8 9 10 11 13 14 11 11 11 10 8 6 6 6 7 7 5 3 7 6 8 9 12 17 18 18 18 18 19 20 20 22 23
11 11 11 11 10 9 8 9 9 10 11 11 11 12 11 10 8 8 8 7 8 7 5 6 7 8 9 11 17 20 20 19 18 18 19 20 21 22
12 12 12 12 14 13 10 10 11 10 11 14 15 15 15 14 10 6 6 6 8 7 6 6 6 7 8 9 12 15 17 17 17 17 17 18 19 19
10 11 14 16 15 14 11 10 12 12 9 7 8 9 10 11 12 11 10 9 9 7 6 6 5 4 5 4 4 5 7 11 14 16 16 16 16 12
10 10 11 15 18 17 14 12 15 12 8 8 8 8 8 8 8 9 10 10 11 10 7 6 5 5 6 6 6 6 6 6 7 8 12 15 16 13
12 11 11 15 16 16 13 14 16 12 8 7 8 9 9 9 9 9 10 12 13 13 11 9 8 9 9 10 9 7 7 7 7 8 8 9 13 17
13 15 15 15 13 12 15 15 12 9 8 9 10 11 10 10 8 7 8 9 12 14 15 15 13 11 10 11 10 10 8 8 8 8 8 7 7 7
13 13 15 14 12 11 10 10 9 9 9 10 10 10 8 7 8 7 7 7 7 9 12 15 14 14 12 13 12 12 10 7 6 6 7 8 7 8
8 7 7 7 8 9 9 9 8 8 9 10 9 9 9 8 9 7 7 7 7 8 9 7 9 11 13 11 10 12 11 11 11 10 8 9 9 9
7 8 10 10 11 11 10 9 8 9 9 9 9 9 9 9 8 7 7 8 9 10 10 8 6 5 6 9 14 13 12 12 11 10 9 9 10 8
8 11 11 11 11 10 9 9 9 9 8 8 9 9 9 8 8 8 8 9 10 10 10 8 7 8 10 11 9 14 13 11 10 9 9 9 10 9
9 11 11 11 10 9 9 9 9 8 8 8 8 9 9 9 9 9 9 10 10 10 10 9 9 10 12 12 10 7 13 12 10 10 9 8 9 8
9 10 10 9 9 9 9 9 9 8 8 7 8 9 8 9 9 9 9 11 11 10 11 11 11 12 10 8 8 9 9 12 12 9 8 7 7 6
9 9 9 9 8 8 8 8 8 8 8 8 8 8 8 9 10 11 10 10 10 10 12 10 8 7 8 9 12 12 10 7 7 8 7 6 5 5
9 9 8 8 8 8 8 8 9 8 7 7 7 8 8 8 9 9 10 10 10 10 10 9 7 7 9 10 11 11 11 9 6 6 5 3 6 8
Wind_Direction
230 226 227 231 217 217 209 196 199 263 287 282 292 304 326 325 327 328 321 319 317 307 294 282 277 272 267 260 254 252 248 246 240 233 230 229 226 225
229 231 237 239 231 222 216 214 211 217 249 260 260 283 300 306 313 316 310 311 306 299 289 280 274 270 268 266 262 259 256 251 247 238 231 229 228 226
241 233 244 238 238 235 222 218 217 213 243 267 258 271 279 287 304 309 304 300 296 292 289 283 277 271 266 264 264 261 257 253 249 245 239 233 229 227
251 242 250 244 239 239 230 230 229 220 230 262 271 267 262 275 285 293 299 299 292 292 292 287 280 273 267 263 262 260 258 255 252 248 244 239 233 229
248 244 249 242 247 244 237 241 242 237 226 244 265 261 266 273 283 286 288 290 292 293 295 291 288 284 277 269 264 260 258 255 253 251 249 245 240 234
244 243 245 239 244 246 245 243 243 244 238 242 259 265 265 267 262 272 285 280 289 295 287 283 286 292 289 283 274 265 259 255 253 251 250 247 243 239
249 246 245 244 243 240 241 242 237 242 246 248 258 263 264 260 257 255 271 283 281 267 277 278 284 289 288 284 280 273 266 259 255 252 250 248 245 241
251 253 253 255 255 252 249 245 233 235 243 246 254 257 263 258 255 251 258 273 282 251 252 279 279 281 278 275 271 271 270 266 260 256 252 249 246 242
244 251 256 253 245 251 257 260 252 240 233 237 250 255 260 253 244 251 244 245 256 259 259 279 272 274 272 271 268 268 268 267 263 258 254 251 247 243
243 243 246 253 249 240 249 258 260 256 246 240 242 249 251 252 242 249 258 260 262 259 237 264 273 271 276 272 268 263 263 264 263 260 255 252 248 244
246 242 240 247 247 234 238 251 262 266 258 244 239 245 248 247 239 242 245 249 265 264 219 234 265 272 274 271 267 262 260 260 262 262 258 254 250 245
250 245 237 237 241 232 230 237 250 259 260 262 253 254 255 255 242 233 239 246 256 265 230 216 249 260 277 261 264 272 271 266 262 261 259 255 248 239
249 249 243 231 233 234 227 231 238 244 253 255 263 267 266 260 252 239 231 232 241 248 236 212 246 246 253 273 279 276 271 272 271 265 258 251 243 228
244 246 242 232 229 231 229 230 235 240 248 251 257 262 264 262 258 249 237 233 237 246 250 232 244 250 257 266 271 271 265 264 266 269 266 253 242 233
245 242 238 235 231 236 235 232 232 234 234 243 252 257 257 258 260 257 250 241 244 248 249 239 238 247 248 254 262 267 274 272 259 259 261 255 245 232
245 247 243 238 234 236 239 236 229 226 228 241 251 257 258 255 254 250 254 249 252 258 245 238 235 235 242 246 252 260 261 261 261 255 259 261 253 240
241 240 237 233 232 234 235 236 232 227 231 238 244 252 253 253 254 245 242 242 242 256 262 247 232 232 236 243 249 253 256 257 256 257 259 263 258 245
229 239 239 235 234 235 235 236 233 231 231 233 236 241 247 249 253 248 239 241 247 252 256 256 243 236 240 244 229 245 252 254 254 247 244 255 262 251
225 238 239 236 234 232 232 233 236 235 227 226 232 237 240 244 248 251 247 244 247 250 252 249 237 233 248 259 243 215 233 247 248 246 241 244 255 255
231 238 240 238 235 233 231 232 237 238 229 227 231 235 235 238 244 247 246 245 247 250 253 246 235 230 236 252 260 248 220 232 242 245 246 246 252 255
245 243 245 244 240 236 235 232 231 234 233 229 232 233 235 236 241 245 247 246 246 250 251 250 244 233 241 251 256 254 246 223 231 240 241 241 247 245
257 250 247 246 243 241 239 235 234 234 234 234 237 237 236 237 242 246 248 248 246 245 251 255 253 235 225 233 244 253 256 242 227 227 238 244 240 234
264 257 252 246 240 238 237 235 234 236 234 235 239 241 240 241 243 246 249 248 248 249 251 253 246 231 232 235 243 248 250 245 230 222 227 254 259 262
Height
1543 1543 1542 1542 1542 1541 1541 1541 1541 1539 1538 1538 1538 1538 1538 1538 1537 1537 1537 1538 1538 1538 1539 1539 1540 1540 1541 1542 1544 1546 1548 1550 1552 1555 1559 1562 1566 1569
1541 1540 1540 1540 1539 1539 1538 1538 1537 1537 1535 1534 1535 1535 1534 1534 1534 1533 1533 1533 1533 1534 1534 1535 1536 1536 1536 1537 1538 1539 1541 1542 1544 1547 1550 1554 1558 1561
1538 1538 1537 1537 1536 1536 1535 1535 1534 1533 1532 1531 1531 1530 1530 1530 1529 1529 1528 1528 1529 1529 1530 1530 1531 1531 1531 1532 1532 1533 1534 1535 1537 1539 1542 1545 1549 1552
1535 1535 1534 1534 1533 1533 1532 1531 1530 1530 1528 1527 1526 1526 1526 1525 1524 1524 1524 1523 1523 1524 1524 1524 1525 1525 1525 1526 1526 1527 1527 1528 1529 1531 1533 1537 1540 1543
1532 1531 1531 1530 1529 1529 1528 1527 1526 1525 1524 1523 1522 1521 1521 1521 1520 1519 1519 1518 1518 1518 1518 1518 1519 1519 1519 1519 1520 1520 1521 1521 1522 1523 1525 1527 1530 1533
1528 1527 1527 1526 1525 1524 1523 1522 1522 1521 1520 1518 1517 1517 1516 1516 1515 1514 1513 1513 1512 1512 1512 1512 1512 1512 1513 1513 1513 1513 1514 1514 1515 1516 1517 1519 1521 1524
1524 1523 1522 1521 1520 1519 1518 1517 1517 1516 1515 1514 1513 1512 1511 1511 1510 1509 1508 1507 1506 1506 1506 1506 1506 1506 1506 1506 1506 1506 1507 1507 1507 1508 1509 1510 1512 1515
1519 1518 1517 1516 1515 1514 1513 1512 1511 1510 1509 1509 1507 1506 1506 1506 1505 1504 1503 1501 1500 1501 1500 1500 1500 1499 1499 1500 1500 1500 1500 1500 1500 1500 1501 1502 1504 1506
1514 1513 1512 1511 1510 1509 1508 1507 1506 1505 1504 1504 1502 1501 1501 1500 1500 1498 1497 1496 1495 1495 1494 1491 1492 1492 1492 1492 1492 1492 1492 1493 1493 1493 1493 1494 1495 1497
1508 1507 1506 1505 1504 1503 1502 1501 1500 1500 1499 1498 1496 1495 1495 1494 1494 1493 1491 1489 1488 1488 1488 1485 1484 1484 1484 1484 1484 1484 1485 1485 1485 1485 1485 1486 1487 1488
1502 1501 1500 1499 1498 1498 1496 1495 1494 1494 1493 1492 1491 1490 1489 1488 1487 1486 1485 1483 1481 1480 1481 1479 1477 1477 1475 1475 1476 1476 1477 1477 1477 1477 1477 1478 1479 1479
1494 1494 1493 1492 1492 1491 1490 1488 1487 1487 1487 1486 1485 1483 1482 1481 1481 1479 1478 1477 1475 1473 1473 1473 1471 1471 1468 1468 1469 1469 1469 1469 1469 1469 1469 1470 1471 1471
1486 1486 1485 1485 1484 1484 1483 1481 1480 1480 1479 1478 1477 1476 1475 1474 1473 1472 1471 1469 1468 1466 1467 1466 1465 1465 1464 1462 1461 1462 1462 1462 1462 1462 1462 1462 1463 1463
1477 1477 1477 1477 1477 1476 1475 1474 1474 1473 1471 1470 1468 1467 1466 1465 1465 1464 1463 1461 1460 1459 1459 1459 1457 1457 1457 1455 1454 1454 1455 1455 1455 1455 1455 1455 1455 1456
1468 1468 1468 1468 1468 1467 1467 1466 1466 1464 1463 1461 1459 1458 1458 1457 1456 1455 1454 1453 1452 1452 1451 1451 1450 1450 1450 1448 1447 1447 1447 1447 1448 1448 1448 1448 1448 1449
1459 1459 1459 1458 1458 1458 1458 1457 1456 1455 1454 1453 1451 1450 1450 1449 1448 1447 1446 1445 1444 1443 1444 1444 1443 1443 1442 1441 1441 1440 1441 1440 1441 1442 1442 1441 1441 1441
1449 1448 1448 1447 1447 1447 1447 1448 1447 1447 1445 1444 1443 1442 1441 1440 1439 1439 1438 1437 1436 1435 1435 1436 1436 1435 1434 1434 1433 1433 1433 1433 1434 1435 1435 1434 1434 1435
1439 1437 1436 1436 1436 1437 1437 1438 1438 1437 1437 1436 1435 1434 1433 1432 1431 1431 1430 1429 1428 1427 1427 1428 1428 1428 1427 1426 1426 1425 1426 1426 1427 1427 1428 1427 1427 1428
1428 1426 1426 1426 1426 1426 1427 1428 1428 1428 1428 1427 1426 1426 1425 1424 1424 1423 1423 1422 1420 1420 1420 1420 1420 1420 1419 1418 1417 1419 1419 1419 1419 1419 1420 1420 1420 1421
1418 1416 1416 1416 1416 1416 1417 1418 1418 1419 1418 1418 1418 1418 1417 1417 1416 1416 1415 1414 1413 1413 1412 1412 1412 1412 1411 1411 1411 1411 1412 1412 1412 1412 1413 1413 1413 1414
1409 1407 1407 1407 1407 1407 1408 1408 1409 1409 1409 1409 1410 1410 1410 1409 1409 1408 1407 1407 1406 1405 1404 1404 1404 1405 1405 1404 1403 1402 1404 1405 1405 1405 1406 1407 1407 1407
1400 1399 1399 1398 1398 1398 1399 1400 1400 1400 1401 1401 1402 1402 1402 1401 1401 1400 1400 1399 1398 1398 1397 1397 1397 1397 1397 1396 1396 1396 1397 1398 1398 1399 1400 1401 1401 1401
1392 1391 1391 1390 1390 1391 1391 1391 1392 1392 1393 1393 1394 1394 1394 1394 1393 1392 1392 1391 1390 1390 1390 1390 1390 1390 1390 1390 1390 1390 1390 1391 1392 1392 1393 1394 1395 1396